Wind_Speed
112 109 125 129 126 121 113 116 115 106 101 94 94 92 85 87 78 70 66 75 81 81 68 75 73 61 61 56 69 67 61 55 54 49 45 46 42 42 39 35 30 26 26 23 15
110 109 118 126 128 123 124 120 118 111 103 98 99 92 90 86 82 74 78 66 83 81 83 62 67 66 62 62 64 62 59 66 52 55 51 48 49 41 39 37 32 34 36 32 20
105 108 115 131 133 127 125 121 122 115 108 103 100 97 93 87 88 81 79 76 70 73 87 80 61 67 67 69 63 64 60 59 69 57 56 52 51 50 46 41 37 37 39 36 35
105 107 119 126 130 126 126 126 123 117 114 109 103 98 95 89 86 89 82 76 71 66 70 89 85 69 55 63 66 72 68 64 69 68 61 55 54 51 50 45 45 41 40 37 38
111 111 115 128 127 127 129 127 123 122 117 112 108 105 101 93 90 89 85 79 76 73 63 73 76 87 84 71 65 66 69 63 67 67 56 62 58 55 50 52 51 53 49 44 39
115 112 116 126 128 129 129 126 123 123 121 116 110 104 100 93 95 92 90 85 83 75 74 69 63 68 78 76 62 65 66 61 60 70 66 60 59 57 50 50 47 44 39 40 43
124 115 113 120 129 130 134 131 129 125 123 120 113 106 100 104 96 94 96 91 87 81 77 72 68 66 71 62 56 65 66 68 68 66 65 62 58 58 55 50 49 44 40 38 35
127 111 111 127 127 136 137 137 133 129 124 121 117 113 107 107 101 97 95 93 89 84 80 76 72 67 65 67 56 60 68 69 71 69 63 62 62 58 58 57 51 45 49 39 37
122 111 115 117 123 127 132 133 132 131 126 123 122 115 111 108 105 101 98 94 92 88 83 78 73 70 67 64 67 51 56 71 72 71 70 74 67 61 61 58 53 49 46 37 33
114 114 114 118 118 125 125 133 132 133 131 125 120 124 113 106 105 102 100 99 94 88 86 84 79 72 75 64 65 56 53 61 72 74 71 70 70 69 67 61 62 53 48 49 41
114 120 120 112 116 117 123 128 137 141 137 130 130 116 115 110 110 105 103 101 97 93 91 89 82 73 77 73 68 68 65 55 61 69 70 70 72 72 70 61 64 54 55 52 43
120 122 117 121 114 118 129 130 128 125 127 130 122 121 119 112 110 106 104 102 102 96 94 90 85 82 82 78 74 69 69 59 54 56 68 70 70 67 61 60 60 60 55 56 48
114 118 115 113 110 114 122 123 129 129 124 117 120 121 119 118 115 111 104 103 102 99 96 92 88 88 87 83 80 68 76 66 61 55 63 70 72 65 65 65 64 65 60 58 54
117 119 116 111 112 121 125 125 122 126 124 126 125 133 127 123 119 114 110 108 109 102 99 100 97 91 89 89 84 75 78 73 70 64 56 68 72 68 72 71 69 70 68 58 60
115 112 108 114 115 111 120 125 121 125 125 124 125 127 122 124 117 115 110 108 108 104 103 98 97 95 93 90 89 86 84 82 72 70 68 60 61 72 78 75 74 74 66 59 63
111 112 106 108 106 112 116 116 125 130 134 130 129 128 130 128 124 119 116 109 107 109 107 108 103 101 99 97 95 92 85 89 81 77 74 68 57 53 73 81 75 73 70 68 68
117 113 109 107 103 108 115 118 127 132 135 131 133 131 129 122 122 121 119 114 111 106 105 105 102 99 99 99 95 91 92 89 89 82 72 79 72 57 58 73 80 79 78 77 73
117 105 101 100 105 102 107 115 125 129 134 131 128 126 132 127 124 125 124 118 111 108 104 104 103 100 100 98 94 94 93 96 96 90 86 83 76 68 70 66 69 83 86 86 82
124 118 113 111 106 99 108 113 120 126 132 133 126 131 131 130 129 124 120 119 115 112 110 108 105 104 101 102 100 101 99 98 99 98 96 86 82 79 79 78 74 78 80 91 86
122 115 110 106 105 105 106 110 112 118 125 127 126 123 119 122 128 129 121 115 115 114 114 112 113 111 110 108 104 102 103 102 102 101 100 95 85 83 86 86 82 76 85 82 84
123 116 118 116 107 107 99 95 108 109 117 118 117 113 113 120 123 126 127 120 118 118 114 114 115 114 114 110 108 107 108 107 106 104 104 102 96 91 90 93 91 88 82 85 88
122 126 121 115 113 115 100 94 97 111 111 116 118 116 105 110 123 123 129 126 122 121 119 120 119 116 114 114 114 115 114 113 110 110 106 106 99 95 95 94 102 91 92 85 89
125 121 122 126 118 112 108 109 105 103 102 105 114 118 115 118 121 123 121 125 123 121 120 119 120 121 120 119 119 116 115 115 117 117 112 111 98 101 98 101 101 106 101 95 89
128 129 131 132 123 118 118 113 110 107 106 109 109 112 113 114 119 117 117 125 116 118 121 123 124 120 120 115 117 120 123 122 126 126 114 114 103 108 109 107 108 110 106 103 97
132 128 125 120 121 112 108 112 109 109 107 105 108 106 104 102 105 109 112 118 117 116 121 123 122 123 124 120 122 122 122 122 124 118 119 105 108 106 107 111 111 109 109 107 100
130 125 124 119 117 116 119 114 108 103 104 100 97 98 92 96 93 92 102 104 104 109 118 115 111 114 118 122 123 125 126 124 121 115 117 108 112 108 109 109 113 122 118 114 109
125 127 123 119 116 113 110 115 113 109 102 99 97 93 88 85 88 92 102 105 105 107 106 108 108 110 109 111 116 123 113 114 118 117 118 117 104 112 112 112 116 122 119 117 116
Wind_Direction
222 211 211 213 213 213 213 213 215 214 215 209 207 210 211 212 210 211 209 211 213 211 213 218 224 222 217 218 221 227 230 236 235 232 235 240 235 250 247 246 258 267 280 265 279
216 211 210 210 213 214 213 211 214 214 214 213 205 210 210 211 211 213 212 211 213 214 214 209 216 223 224 219 228 229 228 235 226 226 232 237 234 240 243 245 245 262 271 273 269
213 209 209 211 208 211 212 211 213 213 212 212 210 210 209 211 210 212 214 211 208 214 218 217 213 220 222 227 225 221 229 236 233 228 229 234 232 236 244 237 252 260 263 274 269
212 205 206 205 204 208 209 211 212 213 214 214 213 208 209 210 213 217 214 212 211 209 211 216 219 218 220 230 234 230 235 237 228 231 234 238 233 237 243 248 257 257 259 266 266
211 205 202 203 202 205 207 208 211 213 214 214 215 211 210 213 213 218 216 216 213 212 212 209 216 226 228 229 229 221 225 230 229 227 234 237 239 244 251 249 255 261 264 260 259
209 206 199 200 201 202 204 206 210 213 214 215 214 213 210 212 214 218 217 215 213 216 213 212 211 213 217 221 219 217 220 227 230 232 237 238 248 244 247 251 253 253 258 247 255
209 206 200 198 202 203 202 204 210 213 213 215 215 216 212 214 216 218 215 218 219 221 212 213 216 214 213 214 217 220 226 233 236 229 238 246 246 237 249 244 257 247 250 251 252
206 205 202 199 203 202 201 200 207 212 213 215 216 216 216 215 216 216 218 219 220 220 217 215 218 216 215 218 218 226 228 226 225 228 233 243 235 248 241 246 254 249 251 248 260
205 203 203 202 202 204 204 201 204 210 213 214 216 217 217 217 217 215 218 220 220 222 221 220 216 214 212 217 216 215 219 221 225 231 236 244 238 236 238 248 251 254 246 242 252
203 202 203 205 200 203 203 205 204 208 211 212 215 218 219 217 220 219 219 220 222 224 223 223 217 221 217 218 214 217 214 224 224 231 234 235 237 241 247 249 255 250 241 242 253
198 202 204 203 199 200 205 207 207 206 210 213 216 216 219 221 220 219 220 220 222 222 224 223 222 222 219 217 215 219 218 220 226 223 225 227 234 241 247 248 255 245 241 248 252
196 201 201 205 198 201 203 204 207 211 212 213 214 215 218 221 222 221 220 221 222 224 224 224 224 225 226 218 220 222 222 222 220 220 225 229 233 236 239 239 237 237 241 244 242
192 198 201 202 201 202 207 206 207 208 210 214 217 217 217 220 222 221 221 224 224 225 227 226 226 229 227 224 223 226 222 224 228 221 222 223 229 231 231 229 235 231 235 243 239
195 199 203 203 201 203 206 206 204 208 209 211 212 216 216 217 220 220 221 221 223 225 227 225 224 229 228 225 225 226 222 223 228 223 223 224 224 230 231 232 233 237 236 241 229
191 196 202 205 202 206 207 207 204 206 207 210 215 220 217 218 221 223 222 223 224 225 226 227 229 231 230 227 228 230 231 226 232 226 223 223 227 237 230 231 233 238 242 235 234
189 192 195 203 204 204 207 205 206 206 207 208 212 213 216 218 218 220 221 224 225 227 228 227 227 229 229 230 229 231 232 231 233 229 222 226 225 233 236 233 234 234 236 234 235
191 193 194 197 199 205 206 207 208 207 207 206 209 213 216 216 219 221 223 224 226 228 229 229 231 234 234 234 234 234 235 237 236 235 233 227 225 223 246 235 229 232 231 234 234
184 185 190 193 197 200 208 207 209 207 207 209 211 213 219 218 220 220 222 223 224 227 229 230 233 235 235 237 239 238 238 238 238 238 235 228 227 222 233 244 241 235 233 232 231
186 188 190 190 192 196 209 209 209 208 208 208 211 214 216 220 221 222 223 222 224 227 229 231 233 235 236 237 238 239 240 241 239 238 237 234 235 227 230 239 243 243 241 239 239
190 192 193 194 197 197 209 213 211 209 208 210 212 215 219 221 223 219 222 223 225 227 229 231 233 234 235 238 239 242 243 243 243 241 240 240 238 237 233 234 239 248 245 250 247
187 186 191 191 197 201 204 213 213 208 209 209 213 212 218 221 226 224 221 223 225 227 229 231 234 236 237 239 241 243 244 245 244 243 241 240 240 238 238 236 240 246 248 249 250
191 192 193 194 198 197 199 204 212 206 208 207 206 211 213 220 223 226 223 223 226 228 229 230 233 236 238 238 240 241 242 245 245 246 245 241 241 244 242 241 238 243 249 252 252
190 192 195 194 199 201 203 208 211 209 205 207 211 211 216 220 223 226 228 225 224 228 232 233 233 235 236 238 240 243 245 247 247 247 248 248 244 246 245 245 242 241 246 250 253
193 196 194 196 201 204 208 213 214 213 211 208 209 213 218 220 223 225 230 231 226 227 229 233 234 234 237 238 239 240 242 244 245 245 249 248 251 249 249 247 245 244 245 249 253
193 196 198 200 203 203 206 210 213 216 215 210 211 214 218 221 223 223 228 231 231 230 230 232 236 237 238 239 241 242 243 246 248 250 251 254 253 256 256 257 254 249 249 250 255
192 197 201 202 206 208 209 211 214 219 222 222 216 212 220 223 223 221 226 231 232 236 235 235 237 238 240 241 243 245 245 247 250 252 255 256 256 257 257 258 259 253 249 249 252
193 199 202 205 206 208 213 217 219 217 219 220 218 219 220 221 223 221 223 225 229 232 234 232 234 237 239 241 243 244 249 252 252 252 255 254 253 251 253 254 256 257 257 255 255
Height
10432 10466 10494 10527 10552 10578 10603 10622 10633 10649 10666 10679 10695 10705 10718 10732 10747 10758 10765 10767 10781 10792 10800 10806 10810 10819 10828 10838 10846 10852 10857 10860 10865 10872 10879 10884 10888 10891 10893 10896 10899 10901 10903 10904 10906
10411 10444 10474 10502 10530 10555 10579 10599 10615 10633 10649 10663 10679 10691 10705 10721 10734 10745 10747 10762 10771 10780 10792 10795 10801 10811 10821 10829 10835 10845 10848 10851 10859 10865 10870 10875 10880 10883 10886 10889 10894 10897 10898 10900 10904
10390 10421 10447 10469 10502 10532 10559 10580 10599 10616 10632 10648 10662 10676 10692 10707 10722 10731 10740 10751 10759 10768 10778 10788 10795 10803 10810 10817 10826 10835 10838 10843 10849 10855 10861 10867 10872 10876 10880 10884 10888 10890 10893 10895 10899
10367 10400 10420 10452 10480 10511 10536 10561 10582 10599 10616 10633 10645 10661 10676 10693 10709 10710 10729 10738 10747 10758 10767 10777 10786 10794 10799 10806 10814 10824 10829 10833 10839 10846 10853 10859 10864 10868 10873 10879 10880 10884 10887 10891 10892
10345 10379 10401 10430 10458 10488 10517 10543 10565 10582 10598 10616 10631 10646 10668 10683 10693 10700 10715 10726 10736 10748 10757 10763 10773 10783 10792 10795 10804 10811 10816 10823 10832 10837 10845 10851 10855 10861 10866 10871 10873 10877 10881 10885 10886
10328 10355 10384 10412 10440 10467 10499 10528 10548 10564 10582 10599 10618 10636 10652 10667 10673 10684 10699 10713 10722 10734 10743 10754 10763 10770 10780 10786 10794 10798 10806 10813 10822 10829 10835 10844 10849 10854 10858 10863 10866 10871 10875 10878 10880
10308 10339 10369 10403 10424 10449 10474 10506 10526 10546 10566 10584 10604 10620 10634 10642 10656 10669 10686 10697 10708 10719 10732 10742 10750 10760 10767 10776 10782 10789 10797 10804 10813 10818 10825 10833 10840 10840 10852 10856 10860 10864 10868 10872 10873
10293 10325 10357 10378 10407 10428 10454 10479 10508 10530 10550 10569 10586 10597 10617 10626 10642 10658 10670 10685 10699 10711 10723 10730 10740 10749 10757 10768 10772 10778 10789 10796 10799 10805 10814 10821 10828 10833 10842 10847 10852 10856 10860 10864 10866
10282 10315 10340 10367 10394 10416 10445 10468 10494 10514 10535 10550 10562 10582 10597 10613 10631 10645 10659 10674 10686 10697 10707 10718 10730 10739 10747 10756 10763 10773 10779 10780 10788 10796 10804 10810 10816 10825 10831 10837 10842 10846 10852 10856 10859
10273 10305 10329 10351 10383 10405 10431 10453 10478 10488 10505 10530 10544 10550 10584 10612 10620 10636 10647 10659 10672 10684 10692 10705 10719 10730 10740 10746 10757 10763 10764 10765 10777 10786 10795 10802 10805 10814 10820 10827 10833 10838 10844 10846 10849
10267 10292 10316 10343 10369 10394 10412 10425 10436 10447 10471 10506 10522 10574 10577 10591 10597 10620 10633 10645 10659 10669 10684 10695 10710 10722 10726 10728 10738 10745 10751 10756 10765 10778 10785 10792 10796 10802 10808 10817 10822 10827 10832 10836 10839
10254 10281 10310 10327 10356 10382 10386 10408 10454 10483 10490 10498 10524 10539 10556 10568 10582 10602 10618 10633 10646 10656 10671 10684 10698 10705 10706 10719 10727 10733 10740 10746 10755 10765 10773 10780 10783 10791 10799 10802 10809 10815 10822 10824 10829
10247 10269 10292 10319 10345 10365 10378 10408 10425 10448 10467 10497 10510 10523 10539 10552 10566 10583 10602 10620 10630 10642 10656 10669 10681 10684 10693 10705 10714 10721 10727 10734 10744 10752 10759 10766 10773 10780 10785 10792 10797 10805 10808 10813 10817
10237 10258 10280 10305 10329 10345 10365 10387 10414 10438 10455 10468 10474 10487 10508 10528 10539 10561 10578 10592 10611 10626 10637 10646 10664 10672 10681 10692 10700 10708 10715 10719 10729 10739 10749 10755 10766 10772 10774 10780 10786 10790 10795 10798 10803
10228 10251 10272 10294 10317 10337 10356 10378 10402 10420 10433 10447 10462 10475 10498 10515 10543 10554 10567 10582 10600 10612 10622 10638 10650 10658 10667 10680 10682 10694 10701 10707 10717 10726 10738 10748 10755 10756 10763 10770 10771 10774 10779 10784 10789
10221 10242 10263 10285 10309 10324 10340 10366 10383 10390 10403 10421 10436 10448 10467 10493 10510 10529 10547 10571 10584 10593 10605 10616 10627 10638 10653 10659 10667 10681 10688 10696 10700 10711 10727 10736 10744 10753 10750 10752 10757 10759 10764 10767 10771
10212 10233 10256 10275 10295 10309 10328 10338 10350 10364 10387 10405 10417 10441 10457 10482 10498 10515 10536 10556 10568 10585 10599 10613 10624 10634 10641 10647 10658 10671 10679 10679 10682 10694 10718 10718 10726 10751 10735 10735 10737 10741 10742 10750 10755
10203 10225 10245 10266 10280 10295 10306 10319 10329 10351 10371 10395 10414 10433 10446 10472 10481 10490 10513 10532 10554 10568 10584 10593 10607 10619 10630 10635 10645 10649 10654 10656 10665 10681 10693 10703 10717 10735 10724 10717 10721 10725 10727 10730 10735
10193 10213 10233 10251 10266 10282 10289 10297 10316 10335 10365 10390 10402 10417 10432 10443 10460 10481 10504 10527 10540 10552 10564 10576 10587 10597 10606 10612 10619 10625 10633 10641 10650 10662 10671 10687 10701 10711 10711 10706 10701 10702 10709 10711 10719
10185 10201 10220 10241 10253 10264 10276 10293 10309 10333 10361 10378 10397 10409 10420 10437 10449 10473 10489 10512 10526 10536 10545 10558 10561 10575 10583 10588 10598 10609 10612 10622 10634 10647 10657 10672 10686 10693 10696 10691 10686 10689 10693 10696 10701
10173 10193 10210 10226 10239 10251 10267 10282 10302 10325 10348 10361 10382 10402 10416 10431 10437 10458 10483 10496 10506 10515 10525 10536 10546 10557 10564 10580 10586 10588 10595 10603 10612 10623 10635 10652 10663 10673 10673 10677 10674 10674 10675 10680 10683
10162 10183 10199 10216 10227 10241 10259 10275 10291 10314 10330 10354 10368 10384 10398 10413 10424 10436 10460 10476 10487 10498 10502 10512 10523 10534 10546 10549 10556 10560 10574 10581 10592 10605 10612 10620 10642 10652 10654 10658 10663 10664 10660 10661 10668
10151 10171 10188 10202 10214 10235 10249 10260 10281 10305 10323 10341 10356 10372 10386 10396 10406 10417 10434 10448 10462 10474 10485 10497 10502 10508 10513 10525 10543 10559 10560 10563 10567 10574 10588 10598 10637 10629 10638 10634 10636 10640 10640 10643 10646
10140 10156 10174 10190 10206 10224 10238 10252 10270 10285 10301 10324 10340 10354 10365 10378 10394 10406 10417 10423 10447 10456 10458 10462 10474 10487 10502 10518 10515 10520 10527 10532 10534 10543 10573 10578 10607 10609 10610 10614 10614 10617 10623 10627 10632
10133 10149 10168 10183 10202 10216 10228 10240 10256 10272 10290 10311 10323 10341 10356 10369 10377 10394 10404 10408 10421 10433 10437 10444 10459 10474 10480 10489 10498 10507 10513 10515 10523 10550 10543 10580 10581 10584 10588 10586 10596 10601 10606 10609 10615
10127 10143 10159 10171 10186 10202 10216 10229 10243 10263 10280 10303 10323 10337 10346 10355 10376 10395 10398 10401 10412 10419 10429 10438 10452 10458 10465 10471 10479 10484 10490 10503 10520 10531 10528 10556 10559 10565 10569 10568 10565 10569 10574 10586 10593
10119 10135 10150 10159 10176 10192 10206 10221 10237 10251 10269 10285 10301 10316 10332 10346 10353 10364 10365 10369 10376 10384 10396 10408 10421 10430 10443 10448 10449 10452 10497 10495 10501 10506 10513 10521 10543 10518 10537 10543 10542 10539 10546 10564 10566